Location: Rounton
(54.4000°N, 1.3500°W)
Time: 07:51:57
(UTC+00:00)

Vanguard 3 - Pass Details

Date: 06 December 2021
Orbit: 508 x 3260 km, 33.3° (Epoch: 16 January)

Event Time Altitude Azimuth Distance (km) Brightness Sun altitude
Rises 06:09:21 0° 254° (WSW) 7,218 - -16.3°
Exits shadow 06:11:37 - 251° (WSW) 6,798 11.4 -16.0°
Reaches altitude 10° 06:14:59 10° 247° (WSW) 6,183 11.2 -15.5°
Maximum altitude 06:30:36 33° 194° (SSW) 4,012 10.7 -13.4°
Drops below altitude 10° 06:42:22 10° 137° (SE) 4,654 12.1 -11.8°
Sets 06:45:54 0° 128° (SE) 5,291 13.0 -11.3°
